Weather History for KHZR - December, 2013

Change the Weather History Date:

Monday, December 23, 2013

  Actual Average (KBTR) Record (KBTR)
Temperature  
Mean Temperature 40 °F 52 °F  
Max Temperature 47 °F 63 °F 83 °F (1931)
Min Temperature 32 °F 42 °F 8 °F (1989)
Degree Days  
Heating Degree Days 26 13  
Month to date heating degree days 271  
Since 1 July heating degree days 506  
Cooling Degree Days 0 1  
Month to date cooling degree days 23  
Year to date cooling degree days 2824  
Moisture  
Dew Point 33 °F    
Average Humidity 74    
Maximum Humidity 86    
Minimum Humidity 56    
Precipitation  
Precipitation 0.00 in 0.19 in 2.64 in (1988)
Month to date precipitation 4.09  
Year to date precipitation 59.14  
Snow  
Snow 0.00 in - - ()
Month to date snowfall  
Since 1 July snowfall  
Snow Depth -    
Sea Level Pressure  
Sea Level Pressure 30.39 in    
Wind  
Wind Speed 12 mph (NNW)    
Max Wind Speed 16 mph    
Max Gust Speed 23 mph    
Visibility 10 miles    
Events      
T = Trace of Precipitation, MM = Missing Value Source: NWS Daily Summary

Daily Weather History Graph

Daily Weather History Graph

Search for Another Location

Airport or City:

Trip Planner

Search our weather history database for the weather conditions in past years. The results will help you decide how hot, cold, wet, or windy it might be!

Date:

Astronomy

Dec. 23, 2013 Rise Set
Actual Time 7:00 AM CST 5:10 PM CST
Civil Twilight 6:33 AM CST 5:36 PM CST
Nautical Twilight 6:03 AM CST 6:06 PM CST
Astronomical Twilight 5:34 AM CST 6:36 PM CST
Moon 10:56 PM CST (12/23) 10:47 AM CST (12/23)
Length of Visible Light 11h 02m
Length of Day
10h 09m
Waning Gibbous, 68% of the Moon is Illuminated
Dec 23
Waning Gibbous
Dec 25
Last Quarter
Jan 1
New
Jan 7
First Quarter
Jan 15
Full

Hourly Weather History & Observations

Time (CST) Temp. Windchill Dew Point Humidity Pressure Visibility Wind Dir Wind Speed Gust Speed Precip Events Conditions
12:15 AM 46.6 °F - 42.1 °F 84% 30.23 in 10.0 mi NNW 11.5 mph - N/A   Overcast
12:35 AM 45.7 °F 38.8 °F 41.7 °F 86% 30.23 in 10.0 mi NW 16.1 mph 20.7 mph N/A   Overcast
12:55 AM 44.6 °F 37.8 °F 40.1 °F 84% 30.22 in 10.0 mi NNW 15.0 mph - N/A   Overcast
1:15 AM 44.1 °F 36.8 °F 39.4 °F 84% 30.25 in 10.0 mi NNW 16.1 mph 19.6 mph N/A   Overcast
1:35 AM 43.5 °F 37.1 °F 38.7 °F 83% 30.25 in 10.0 mi NW 12.7 mph 19.6 mph N/A   Overcast
1:55 AM 42.8 °F 35.4 °F 38.3 °F 84% 30.25 in 10.0 mi NNW 15.0 mph 21.9 mph N/A   Overcast
2:15 AM 42.3 °F 35.1 °F 37.4 °F 83% 30.26 in 10.0 mi NNW 13.8 mph 19.6 mph N/A   Overcast
2:35 AM 42.1 °F 35.7 °F 37.0 °F 82% 30.27 in 10.0 mi NNW 11.5 mph - N/A   Overcast
2:55 AM 41.9 °F 35.4 °F 37.4 °F 84% 30.27 in 10.0 mi NNW 11.5 mph - N/A   Overcast
3:15 AM 41.9 °F 35.9 °F 37.4 °F 84% 30.27 in 10.0 mi NNW 10.4 mph - N/A   Overcast
3:35 AM 41.5 °F 35.0 °F 37.2 °F 85% 30.27 in 10.0 mi NNW 11.5 mph - N/A   Overcast
3:55 AM 41.5 °F 34.6 °F 37.2 °F 85% 30.26 in 10.0 mi North 12.7 mph 18.4 mph N/A   Overcast
4:15 AM 41.4 °F 35.2 °F 37.0 °F 85% 30.26 in 10.0 mi North 10.4 mph - N/A   Overcast
4:35 AM 41.4 °F 34.3 °F 37.2 °F 85% 30.27 in 10.0 mi NNW 12.7 mph - N/A   Overcast
4:55 AM 41.4 °F 34.3 °F 37.4 °F 86% 30.28 in 10.0 mi NNW 12.7 mph 17.3 mph N/A   Overcast
5:15 AM 41.4 °F 33.3 °F 36.9 °F 84% 30.28 in 10.0 mi NNW 16.1 mph 21.9 mph N/A   Overcast
5:35 AM 40.6 °F 32.7 °F 35.2 °F 81% 30.30 in 10.0 mi North 15.0 mph - N/A   Overcast
5:55 AM 40.1 °F 32.0 °F 34.3 °F 80% 30.31 in 10.0 mi North 15.0 mph 23.0 mph N/A   Overcast
6:15 AM 40.1 °F 32.0 °F 34.0 °F 79% 30.32 in 10.0 mi North 15.0 mph 20.7 mph N/A   Overcast
6:35 AM 40.1 °F 32.7 °F 33.8 °F 78% 30.33 in 10.0 mi North 12.7 mph 18.4 mph N/A   Overcast
6:55 AM 40.1 °F 34.1 °F 33.6 °F 78% 30.34 in 10.0 mi North 9.2 mph - N/A   Overcast
7:15 AM 40.1 °F 33.2 °F 33.3 °F 77% 30.35 in 10.0 mi North 11.5 mph - N/A   Overcast
7:35 AM 40.5 °F 34.1 °F 33.4 °F 76% 30.36 in 10.0 mi North 10.4 mph - N/A   Overcast
7:55 AM 40.3 °F 31.9 °F 33.1 °F 75% 30.37 in 10.0 mi NNE 16.1 mph 19.6 mph N/A   Overcast
8:15 AM 40.3 °F 33.9 °F 33.1 °F 75% 30.38 in 10.0 mi NNE 10.4 mph - N/A   Overcast
8:35 AM 40.6 °F 34.8 °F 33.4 °F 75% 30.38 in 10.0 mi North 9.2 mph - N/A   Overcast
8:55 AM 40.8 °F 34.5 °F 33.3 °F 74% 30.40 in 10.0 mi North 10.4 mph - N/A   Overcast
9:15 AM 41.0 °F 33.9 °F 33.6 °F 75% 30.40 in 10.0 mi NNW 12.7 mph 18.4 mph N/A   Overcast
9:35 AM 41.2 °F 35.0 °F 33.8 °F 75% 30.41 in 10.0 mi North 10.4 mph 16.1 mph N/A   Overcast
9:55 AM 41.9 °F 34.3 °F 33.8 °F 73% 30.41 in 10.0 mi North 15.0 mph 19.6 mph N/A   Overcast
10:15 AM 41.7 °F 34.4 °F 33.3 °F 72% 30.42 in 10.0 mi North 13.8 mph 21.9 mph N/A   Overcast
10:35 AM 42.4 °F 34.7 °F 33.1 °F 69% 30.43 in 10.0 mi North 16.1 mph - N/A   Overcast
10:55 AM 42.6 °F 36.3 °F 32.4 °F 67% 30.42 in 10.0 mi North 11.5 mph - N/A   Overcast
11:15 AM 44.1 °F 37.7 °F 32.4 °F 63% 30.42 in 10.0 mi NNW 12.7 mph 16.1 mph N/A   Mostly Cloudy
11:35 AM 43.2 °F 37.0 °F 32.4 °F 66% 30.41 in 10.0 mi NNW 11.5 mph - N/A   Overcast
11:55 AM 43.7 °F 39.1 °F 32.2 °F 64% 30.41 in 10.0 mi North 8.1 mph 18.4 mph N/A   Mostly Cloudy
12:15 PM 44.6 °F 38.4 °F 32.7 °F 63% 30.40 in 10.0 mi NW 12.7 mph 17.3 mph N/A   Scattered Clouds
12:35 PM 45.0 °F 39.3 °F 32.4 °F 61% 30.39 in 10.0 mi NW 11.5 mph - N/A   Scattered Clouds
12:55 PM 46.0 °F 39.9 °F 31.8 °F 58% 30.39 in 10.0 mi NNW 13.8 mph - N/A   Clear
1:15 PM 46.6 °F - 31.8 °F 56% 30.38 in 10.0 mi NNW 11.5 mph - N/A   Clear
1:35 PM 46.8 °F - 32.4 °F 57% 30.38 in 10.0 mi NNW 12.7 mph 17.3 mph N/A   Clear
1:55 PM 46.8 °F - 32.2 °F 57% 30.37 in 10.0 mi NW 15.0 mph 19.6 mph N/A   Clear
2:15 PM 47.3 °F - 32.2 °F 56% 30.38 in 10.0 mi NNW 12.7 mph - N/A   Clear
2:35 PM 46.9 °F - 32.5 °F 57% 30.38 in 10.0 mi NW 11.5 mph - N/A   Clear
2:55 PM 46.8 °F - 32.2 °F 57% 30.38 in 10.0 mi NW 13.8 mph - N/A   Clear
3:15 PM 46.0 °F 39.9 °F 31.8 °F 58% 30.39 in 10.0 mi NNW 13.8 mph 20.7 mph N/A   Clear
3:35 PM 46.0 °F 39.6 °F 32.0 °F 58% 30.39 in 10.0 mi NW 15.0 mph 19.6 mph N/A   Clear
3:55 PM 45.1 °F 38.4 °F 31.5 °F 59% 30.40 in 10.0 mi NNW 15.0 mph 21.9 mph N/A   Clear
4:15 PM 44.2 °F 38.4 °F 31.1 °F 60% 30.40 in 10.0 mi NNW 11.5 mph 17.3 mph N/A   Clear
4:35 PM 43.3 °F 37.7 °F 30.9 °F 62% 30.40 in 10.0 mi North 10.4 mph 16.1 mph N/A   Clear
4:55 PM 42.8 °F 37.0 °F 31.1 °F 63% 30.41 in 10.0 mi North 10.4 mph 17.3 mph N/A   Clear
5:15 PM 41.5 °F 34.2 °F 30.7 °F 65% 30.43 in 10.0 mi North 13.8 mph - N/A   Clear
5:35 PM 40.5 °F 32.8 °F 30.9 °F 69% 30.44 in 10.0 mi NNW 13.8 mph 18.4 mph N/A   Clear
5:55 PM 39.4 °F 32.3 °F 30.9 °F 72% 30.45 in 10.0 mi NNW 11.5 mph - N/A   Clear
6:15 PM 38.8 °F 30.8 °F 30.2 °F 71% 30.46 in 10.0 mi North 13.8 mph 17.3 mph N/A   Clear
6:35 PM 38.3 °F 31.9 °F 30.2 °F 73% 30.46 in 10.0 mi NNW 9.2 mph - N/A   Clear
6:55 PM 37.8 °F 30.7 °F 30.2 °F 74% 30.47 in 10.0 mi North 10.4 mph - N/A   Clear
7:15 PM 37.4 °F 31.4 °F 30.0 °F 75% 30.48 in 10.0 mi North 8.1 mph - N/A   Clear
7:35 PM 37.0 °F 31.0 °F 29.8 °F 75% 30.49 in 10.0 mi North 8.1 mph - N/A   Clear
7:55 PM 36.3 °F 30.8 °F 29.7 °F 77% 30.49 in 10.0 mi North 6.9 mph - N/A   Clear
8:15 PM 34.9 °F 29.0 °F 29.3 °F 80% 30.49 in 10.0 mi North 6.9 mph - N/A   Clear
8:35 PM 34.5 °F 30.4 °F 29.5 °F 82% 30.50 in 10.0 mi North 4.6 mph - N/A   Clear
8:55 PM 34.0 °F 28.8 °F 29.1 °F 82% 30.50 in 10.0 mi North 5.8 mph - N/A   Clear
9:15 PM 34.0 °F 28.8 °F 29.3 °F 83% 30.51 in 10.0 mi North 5.8 mph - N/A   Clear
9:35 PM 33.3 °F 27.9 °F 29.1 °F 85% 30.51 in 10.0 mi North 5.8 mph - N/A   Clear
9:55 PM 33.4 °F 29.1 °F 28.9 °F 84% 30.52 in 10.0 mi North 4.6 mph - N/A   Clear
10:15 PM 33.4 °F 29.1 °F 28.9 °F 84% 30.52 in 10.0 mi NNE 4.6 mph - N/A   Clear
10:35 PM 33.3 °F 28.9 °F 28.8 °F 84% 30.52 in 10.0 mi North 4.6 mph - N/A   Clear
10:55 PM 33.1 °F 28.7 °F 28.6 °F 84% 30.52 in 10.0 mi North 4.6 mph - N/A   Clear
11:15 PM 32.5 °F 29.3 °F 28.2 °F 84% 30.52 in 10.0 mi North 3.5 mph - N/A   Clear
11:35 PM 33.1 °F 30.0 °F 28.4 °F 83% 30.52 in 10.0 mi North 3.5 mph - N/A   Clear
11:55 PM 32.0 °F 28.7 °F 28.2 °F 86% 30.52 in 10.0 mi North 3.5 mph - N/A   Clear